{"data":{"norad_id":57876,"epoch":"2026-05-25T04:32:12.511680Z","epoch_age_seconds":69092,"freshness":"FRESH","line1":"1 57876U 23144N   26145.18903370  .00000623  00000+0  32158-4 0  9999","line2":"2 57876  43.0030 213.4677 0001579 273.9999  86.0673 15.27577594149337","mean_motion":15.27577594,"eccentricity":0.0001579,"inclination_deg":43.003,"raan_deg":213.4677,"arg_perigee_deg":273.9999,"mean_anomaly_deg":86.0673,"bstar":3.2158e-5,"rev_number":14933,"period_min":94.26689718781,"perigee_km":481.97291805652,"apogee_km":484.13968290081,"semimajor_km":6861.1933004787,"source":"CELESTRAK","updated_at":"2026-05-25T13:38:18.449122Z"}}